Weather History for K9V9 - October, 2012

Change the Weather History Date:

Saturday, October 27, 2012

  Actual Average Record
Temperature  
Mean Temperature 32 °F -  
Max Temperature 43 °F 52 °F 75 °F (1999)
Min Temperature 23 °F 31 °F 18 °F (1997)
Degree Days  
Heating Degree Days 32    
Moisture  
Dew Point 27 °F    
Average Humidity 80    
Maximum Humidity 92    
Minimum Humidity 65    
Precipitation  
Precipitation 0.00 in - - ()
Sea Level Pressure  
Sea Level Pressure 30.25 in    
Wind  
Wind Speed 9 mph (SSE)    
Max Wind Speed 16 mph    
Max Gust Speed 23 mph    
Averages and records for this station are not official NWS values.
T = Trace of Precipitation, MM = Missing Value Source: NWS Daily Summary

Daily Weather History Graph

Daily Weather History Graph

Search for Another Location

Airport or City:

Trip Planner

Search our weather history database for the weather conditions in past years. The results will help you decide how hot, cold, wet, or windy it might be!

Date:

Astronomy

Oct. 27, 2012 Rise Set
Actual Time 8:07 AM CDT 6:34 PM CDT
Civil Twilight 7:37 AM CDT 7:03 PM CDT
Nautical Twilight 7:04 AM CDT 7:37 PM CDT
Astronomical Twilight 6:30 AM CDT 8:10 PM CDT
Moon 5:22 PM CDT (10/27) 6:01 AM CDT (10/27)
Length of Visible Light 11h 25m
Length of Day
10h 26m
Waxing Gibbous, 96% of the Moon is Illuminated
Oct 27
Waxing Gibbous
Oct 29
Full
Nov 6
Last Quarter
Nov 13
New
Nov 20
First Quarter

Hourly Weather History & Observations

Time (CDT) Temp. Windchill Dew Point Humidity Pressure Visibility Wind Dir Wind Speed Gust Speed Precip Events Conditions
12:52 AM 23.0 °F 15.8 °F 19.0 °F 85% 30.36 in - South 5.8 mph - N/A   Unknown
1:52 AM 26.1 °F 18.4 °F 21.0 °F 81% 30.35 in - South 6.9 mph - N/A   Unknown
2:52 AM 26.1 °F 19.4 °F 21.0 °F 81% 30.34 in - SE 5.8 mph - N/A   Unknown
3:52 AM 27.0 °F 18.0 °F 21.0 °F 78% 30.33 in - SE 9.2 mph - N/A   Unknown
4:52 AM 28.0 °F 20.0 °F 23.0 °F 81% 30.30 in - SE 8.1 mph - N/A   Unknown
5:52 AM 28.9 °F 21.1 °F 24.1 °F 82% 30.30 in - SSE 8.1 mph - N/A   Unknown
6:52 AM 26.1 °F 16.8 °F 21.9 °F 84% 30.29 in - SE 9.2 mph - N/A   Unknown
7:52 AM 28.0 °F 20.0 °F 24.1 °F 85% 30.27 in - SE 8.1 mph - N/A   Unknown
8:52 AM 28.9 °F 20.4 °F 24.1 °F 82% 30.27 in - SE 9.2 mph - N/A   Unknown
9:52 AM 32.0 °F 21.6 °F 27.0 °F 82% 30.27 in - South 15.0 mph - N/A   Unknown
10:52 AM 36.0 °F 27.5 °F 28.0 °F 73% 30.25 in - SSE 12.7 mph - N/A   Unknown
11:52 AM 37.9 °F 29.2 °F 28.9 °F 70% 30.24 in - South 15.0 mph - N/A   Unknown
12:52 PM 39.9 °F 31.4 °F 30.0 °F 68% 30.23 in - South 16.1 mph 23.0 mph N/A   Unknown
1:52 PM 39.9 °F 31.4 °F 30.0 °F 68% 30.20 in - South 16.1 mph - N/A   Unknown
2:52 PM 41.0 °F 33.5 °F 30.0 °F 65% 30.18 in - South 13.8 mph - N/A   Unknown
3:52 PM 42.1 °F 34.5 °F 30.9 °F 65% 30.17 in - South 15.0 mph - N/A   Unknown
4:52 PM 41.0 °F 34.3 °F 30.9 °F 67% 30.18 in - South 11.5 mph - N/A   Unknown
5:52 PM 39.0 °F 32.3 °F 33.1 °F 79% 30.19 in - SE 10.4 mph - N/A   Unknown
6:52 PM 36.0 °F 29.0 °F 30.9 °F 82% 30.21 in - SE 9.2 mph - N/A   Unknown
7:52 PM 33.1 °F 26.9 °F 30.0 °F 89% 30.22 in - ESE 6.9 mph - N/A   Unknown
8:52 PM 32.0 °F 24.8 °F 30.0 °F 92% 30.23 in - SE 8.1 mph - N/A   Unknown
9:52 PM 35.1 °F 26.9 °F 32.0 °F 89% 30.22 in - SE 11.5 mph - N/A   Unknown
10:52 PM 34.0 °F 27.2 °F 32.0 °F 92% 30.23 in - SE 8.1 mph - N/A   Unknown
11:52 PM 34.0 °F 27.2 °F 32.0 °F 92% 30.23 in - SSE 8.1 mph - N/A   Unknown